GW4994 Weather Reports


time (UTC)temp
C
wind
direction
speed
KPH
gust
KPH
rain 1hr
cm
rain 24hr
cm
rain mn
cm
humidity
%
barometer
mb
20260504012535 -17 236 0.0 1.6 0.00 0.00 0.00 1008.0
20260504012033 -17 262 1.6 3.2 0.00 0.00 0.00 1008.0
20260504011529 -17 248 1.6 3.2 0.00 0.00 0.00 1008.0
20260504011025 -17 234 0.0 0.0 0.00 0.00 0.00 1007.9
20260504010521 -17 234 0.0 0.0 0.00 0.00 0.00 1008.0
20260504010017 -17 236 0.0 1.6 0.00 0.00 0.00 1007.9
20260504005514 -17 317 3.2 3.2 0.00 0.00 0.00 1007.8
20260504005012 -17 268 1.6 3.2 0.00 0.00 0.00 1007.8
20260504004509 -17 222 0.0 1.6 0.00 0.00 0.00 1007.8
20260504004006 -17 211 0.0 1.6 0.00 0.00 0.00 1008.1
20260504003502 -17 214 3.2 3.2 0.00 0.00 0.00 1007.7
20260504002959 -17 238 3.2 4.8 0.00 0.00 0.00 1007.7
20260504002456 -17 235 6.4 8.0 0.00 0.00 0.00 1007.8
20260504001953 -17 240 4.8 9.7 0.00 0.00 0.00 1007.7
20260504001451 -17 231 1.6 3.2 0.00 0.00 0.00 1007.6
20260504000947 -17 284 4.8 8.0 0.00 0.00 0.00 1007.7
20260504000444 -17 248 3.2 4.8 0.00 0.00 0.00 1007.7
20260503235942 -17 272 9.7 12.9 0.00 0.00 0.00 1007.8
20260503235439 -17 277 8.0 9.7 0.00 0.00 0.00 1007.5
20260503234936 -17 273 8.0 14.5 0.00 0.00 0.00 1007.5
20260503234434 -17 280 11.3 17.7 0.00 0.00 0.00 1007.5
20260503233932 -17 293 4.8 11.3 0.00 0.00 0.00 1007.7
20260503233428 -17 258 6.4 20.9 0.00 0.00 0.00 1007.6
20260503232925 -17 262 12.9 14.5 0.00 0.00 0.00 1007.6
20260503232422 -17 257 9.7 14.5 0.00 0.00 0.00 1007.7
20260503231920 -17 289 9.7 16.1 0.00 0.00 0.00 1008.0
20260503231417 -17 281 14.5 16.1 0.00 0.00 0.00 1007.7
20260503230913 -17 270 8.0 12.9 0.00 0.00 0.00 1007.8
20260503230409 -17 240 8.0 16.1 0.00 0.00 0.00 1007.9
20260503225908 -17 241 17.7 22.5 0.00 0.00 0.00 1007.9
20260503225403 -17 227 12.9 20.9 0.00 0.00 0.00 1008.0
20260503224859 -17 279 9.7 14.5 0.00 0.00 0.00 1007.8
20260503224357 -17 246 8.0 16.1 0.00 0.00 0.00 1007.8
20260503223854 -17 235 11.3 16.1 0.00 0.00 0.00 1007.8
20260503223352 -17 229 8.0 14.5 0.00 0.00 0.00 1007.9
20260503222847 -17 239 11.3 20.9 0.00 0.00 0.00 1008.2
20260503222346 -17 244 14.5 20.9 0.00 0.00 0.00 1008.1
20260503221844 -17 245 14.5 17.7 0.00 0.00 0.00 1008.2
20260503221342 -17 233 11.3 20.9 0.00 0.00 0.00 1008.2
20260503220838 -17 239 9.7 20.9 0.00 0.00 0.00 1008.2
20260503220335 -17 231 17.7 22.5 0.00 0.00 0.00 1008.3
20260503215832 -17 248 16.1 22.5 0.00 0.00 0.00 1008.3
20260503215329 -17 307 12.9 20.9 0.00 0.00 0.00 1008.4
20260503214827 -17 258 17.7 32.2 0.00 0.00 0.00 1008.1
20260503214324 -17 258 8.0 17.7 0.00 0.00 0.00 1008.4
20260503213821 -17 228 9.7 20.9 0.00 0.00 0.00 1008.4
20260503213319 -17 239 14.5 17.7 0.00 0.00 0.00 1008.4
20260503212815 -17 239 17.7 27.4 0.00 0.00 0.00 1008.5
20260503212313 -17 265 14.5 22.5 0.00 0.00 0.00 1008.2
20260503211810 -17 231 24.1 27.4 0.00 0.00 0.00 1008.4
20260503211307 -17 261 17.7 25.7 0.00 0.00 0.00 1008.7
20260503210807 -17 245 20.9 27.4 0.00 0.00 0.00 1008.5
20260503210305 -17 241 9.7 17.7 0.00 0.00 0.00 1008.7
20260503205800 -17 222 16.1 25.7 0.00 0.00 0.00 1008.8
20260503205256 -17 296 9.7 16.1 0.00 0.00 0.00 1008.8
20260503204753 -17 230 12.9 20.9 0.00 0.00 0.00 1008.7
20260503204251 -17 262 19.3 25.7 0.00 0.00 0.00 1008.9
20260503203748 -17 249 17.7 22.5 0.00 0.00 0.00 1009.0
20260503203245 -17 241 8.0 17.7 0.00 0.00 0.00 1009.1
20260503202742 -17 239 16.1 25.7 0.00 0.00 0.00 1009.1
20260503202240 -17 241 16.1 25.7 0.00 0.00 0.00 1009.1
20260503201738 -17 208 17.7 25.7 0.00 0.00 0.00 1009.3
20260503201235 -17 168 20.9 32.2 0.00 0.00 0.00 1009.2
20260503200731 -17 224 20.9 29.0 0.00 0.00 0.00 1009.3
20260503200228 -17 237 16.1 17.7 0.00 0.00 0.00 1009.4
20260503195724 -17 225 22.5 25.7 0.00 0.00 0.00 1009.5
20260503195221 -17 203 22.5 29.0 0.00 0.00 0.00 1009.4
20260503194719 -17 243 17.7 29.0 0.00 0.00 0.00 1009.7
20260503194215 -17 233 11.3 17.7 0.00 0.00 0.00 1009.8
20260503193711 -17 216 17.7 29.0 0.00 0.00 0.00 1009.9
20260503193207 -17 231 16.1 33.8 0.00 0.00 0.00 1010.2
20260503192703 -17 194 17.7 29.0 0.00 0.00 0.00 1010.0
20260503192158 -17 250 16.1 29.0 0.00 0.00 0.00 1009.9
20260503191655 -17 229 19.3 35.4 0.00 0.00 0.00 1010.3
20260503191152 -17 223 25.7 33.8 0.00 0.00 0.00 1010.1
20260503190649 -17 255 20.9 32.2 0.00 0.00 0.00 1010.2
20260503190146 -17 244 9.7 16.1 0.00 0.00 0.00 1010.3
20260503185643 -17 236 25.7 37.0 0.00 0.00 0.00 1010.4
20260503185138 -17 194 14.5 35.4 0.00 0.00 0.00 1010.3
20260503184633 -17 217 20.9 32.2 0.00 0.00 0.00 1010.3
20260503184130 -17 226 24.1 35.4 0.00 0.00 0.00 1010.5
20260503183626 -17 209 25.7 32.2 0.00 0.00 0.00 1010.5
20260503183124 -17 216 16.1 29.0 0.00 0.00 0.00 1010.6
20260503182622 -17 239 24.1 40.2 0.00 0.00 0.00 1010.6
20260503182120 -17 224 22.5 38.6 0.00 0.00 0.00 1010.7
20260503181616 -17 223 24.1 43.5 0.00 0.00 0.00 1010.6
20260503181113 -17 227 24.1 33.8 0.00 0.00 0.00 1010.8
20260503180610 -17 240 22.5 29.0 0.00 0.00 0.00 1010.8
20260503180108 -17 196 24.1 29.0 0.00 0.00 0.00 1010.7
20260503175605 -17 251 20.9 32.2 0.00 0.00 0.00 1011.1
20260503175102 -17 199 25.7 40.2 0.00 0.00 0.00 1010.8
20260503174559 -17 238 19.3 27.4 0.00 0.00 0.00 1011.2
20260503174055 -17 252 25.7 33.8 0.00 0.00 0.00 1011.0
20260503173550 -17 254 17.7 29.0 0.00 0.00 0.00 1011.3
20260503173047 -17 264 27.4 33.8 0.00 0.00 0.00 1011.5
20260503172544 -17 228 29.0 33.8 0.00 0.00 0.00 1011.5
20260503172042 -17 208 20.9 37.0 0.00 0.00 0.00 1011.5
20260503171538 -17 223 27.4 37.0 0.00 0.00 0.00 1011.9
20260503171035 -17 200 16.1 25.7 0.00 0.00 0.00 1011.7
20260503170531 -17 252 20.9 35.4 0.00 0.00 0.00 1011.7
20260503150919 -17 161 16.1 29.0 0.00 0.00 0.00 1013.0
20260503150415 -17 206 16.1 22.5 0.00 0.00 0.00 1013.3
20260503131308 -17 228 19.3 40.2 0.00 0.00 0.00 1015.2
20260503130806 -17 254 16.1 22.5 0.00 0.00 0.00 1015.2
20260503130303 -17 247 14.5 24.1 0.00 0.00 0.00 1015.1
20260503110656 -17 222 11.3 20.9 0.00 0.00 0.00 1014.9
20260503110153 -17 248 9.7 20.9 0.00 0.00 0.00 1015.0
20260503100120 -17 191 8.0 12.9 0.00 0.00 0.00 1015.5
20260503081510 -17 203 1.6 3.2 0.00 0.00 0.00 1016.2
20260503081007 -17 195 4.8 4.8 0.00 0.00 0.00 1016.2
20260503080503 -17 187 3.2 4.8 0.00 0.00 0.00 1016.2
20260503072939 -17 188 1.6 3.2 0.00 0.00 0.00 1016.5
20260503072437 -17 192 0.0 0.0 0.00 0.00 0.00 1016.6
20260503071933 -17 191 1.6 3.2 0.00 0.00 0.00 1016.4
20260503071430 -17 209 0.0 0.0 0.00 0.00 0.00 1016.4
20260503070926 -17 210 1.6 1.6 0.00 0.00 0.00 1016.8
20260503070424 -17 194 1.6 1.6 0.00 0.00 0.00 1016.8
20260503054837 -17 188 4.8 4.8 0.00 0.00 0.00 1017.2
20260503054333 -17 168 4.8 9.7 0.00 0.00 0.00 1017.1
20260503053831 -17 181 9.7 11.3 0.00 0.00 0.00 1017.3
20260503053329 -17 195 4.8 4.8 0.00 0.00 0.00 1017.3
20260503052825 -17 190 6.4 8.0 0.00 0.00 0.00 1017.4
20260503052322 -17 198 4.8 9.7 0.00 0.00 0.00 1017.3
20260503051818 -17 195 4.8 9.7 0.00 0.00 0.00 1017.5
20260503051315 -17 195 4.8 8.0 0.00 0.00 0.00 1017.6
20260503050812 -17 190 3.2 4.8 0.00 0.00 0.00 1017.3
20260503050308 -17 202 1.6 3.2 0.00 0.00 0.00 1017.5
20260503045806 -17 184 1.6 3.2 0.00 0.00 0.00 1017.8
20260503045305 -17 181 3.2 4.8 0.00 0.00 0.00 1017.5
20260503044759 -17 189 3.2 3.2 0.00 0.00 0.00 1017.5
20260503044251 -17 231 4.8 4.8 0.00 0.00 0.00 1017.5
20260503043749 -17 214 1.6 3.2 0.00 0.00 0.00 1017.6
20260503043246 -17 197 0.0 1.6 0.00 0.00 0.00 1017.6
20260503042741 -17 208 3.2 4.8 0.00 0.00 0.00 1017.4
20260503042238 -17 210 3.2 3.2 0.00 0.00 0.00 1017.5
20260503041734 -17 215 1.6 4.8 0.00 0.00 0.00 1017.8
20260503041232 -17 218 6.4 8.0 0.00 0.00 0.00 1017.8
20260503040729 -17 188 3.2 3.2 0.00 0.00 0.00 1018.0
20260503040227 -17 209 1.6 3.2 0.00 0.00 0.00 1017.9
20260503035723 -17 219 3.2 3.2 0.00 0.00 0.00 1017.8
20260503035221 -17 215 1.6 3.2 0.00 0.00 0.00 1018.1
20260503034718 -17 209 1.6 4.8 0.00 0.00 0.00 1018.2
20260503034215 -17 207 1.6 4.8 0.00 0.00 0.00 1018.0
20260503033712 -17 205 4.8 4.8 0.00 0.00 0.00 1018.0
20260503033210 -17 206 1.6 3.2 0.00 0.00 0.00 1018.0
20260503032708 -17 198 3.2 4.8 0.00 0.00 0.00 1017.9
20260503032206 -17 217 4.8 4.8 0.00 0.00 0.00 1017.9
20260503031703 -17 204 3.2 4.8 0.00 0.00 0.00 1018.2
20260503031201 -17 194 1.6 3.2 0.00 0.00 0.00 1018.2
20260503030656 -17 215 3.2 4.8 0.00 0.00 0.00 1018.3
20260503030153 -17 202 3.2 3.2 0.00 0.00 0.00 1018.3
20260503025650 -17 197 3.2 3.2 0.00 0.00 0.00 1018.4
20260503025148 -17 190 1.6 1.6 0.00 0.00 0.00 1018.3
20260503024644 -17 201 1.6 3.2 0.00 0.00 0.00 1018.2
20260503024142 -17 196 1.6 1.6 0.00 0.00 0.00 1018.3
20260503023639 -17 198 1.6 3.2 0.00 0.00 0.00 1018.2
20260503023136 -17 188 1.6 1.6 0.00 0.00 0.00 1018.3
20260503022632 -17 190 0.0 0.0 0.00 0.00 0.00 1018.4
20260503022131 -17 192 0.0 1.6 0.00 0.00 0.00 1018.1
20260503021629 -17 190 0.0 0.0 0.00 0.00 0.00 1018.3
20260503021125 -17 190 1.6 1.6 0.00 0.00 0.00 1018.3
20260503020622 -17 199 0.0 1.6 0.00 0.00 0.00 1018.1
20260503020120 -17 191 0.0 0.0 0.00 0.00 0.00 1018.2
20260503015616 -17 211 1.6 3.2 0.00 0.00 0.00 1018.3
20260503015114 -17 209 1.6 1.6 0.00 0.00 0.00 1018.1
20260503014609 -17 204 0.0 1.6 0.00 0.00 0.00 1018.0
20260503014107 -17 212 0.0 1.6 0.00 0.00 0.00 1018.0
20260503013604 -17 212 1.6 1.6 0.00 0.00 0.00 1018.0
20260503013102 -17 215 1.6 1.6 0.00 0.00 0.00 1017.8